Regional Weather Roundup
Issued by NWS

Home | Current Version | Previous Version | Graphics & Text | Print | Product List | Glossary On
Versions: 1 2 3 4 5 6 7 8 9 10 11 12 13 14 15 16 17 18 19 20 21 22 23 24 25 26 27 28 29 30 31 32 33 34 35 36 37 38 39 40 41 42 43 44 45 46 47 48 49 50
000
ASUS45 KTFX 261510
RWRMT
MONTANA REGIONAL WEATHER ROUNDUP
NATIONAL WEATHER SERVICE GREAT FALLS MT
900 AM MDT MON JUN 26 2017

NOTE: "FAIR" INDICATES FEW OR NO CLOUDS BELOW 12000 FEET WITH NO
SIGNIFICANT WEATHER AND/OR OBSTRUCTIONS TO VISIBILITY.

MTZ001>007-043-261600-
WEST OF THE DIVIDE

CITY           SKY/WX    TMP DP  RH WIND       PRES   REMARKS
KALISPELL      MOSUNNY   68  49  50 NE9       29.95F
MISSOULA       SUNNY     63  47  55 CALM      30.02F
BUTTE          SUNNY     65  41  41 N3        30.16F
MULLAN PASS    PTSUNNY   66  39  37 S5        30.11F
ANACONDA         N/A     70  45  40 SE7       30.10F
DEER LODGE       N/A     68  50  52 CALM      30.11S
EUREKA           N/A     70  46  43 CALM      29.92F
HAMILTON         N/A     70  45  40 S8        30.01F
$$

MTZ008-052>055-261600-
SOUTHWEST MONTANA

CITY           SKY/WX    TMP DP  RH WIND       PRES   REMARKS
BOZEMAN        SUNNY     64  44  48 CALM      30.13F
DILLON         SUNNY     62  47  57 SW9       30.16F
W YELLOWSTONE  SUNNY     55  39  54 CALM      30.31F
ENNIS          SUNNY     68  41  37 S5        30.21F
THREE FORKS      N/A     63  49  60 CALM      30.09F
$$

MTZ009-010-012-014-046-048-049-054-261600-
EAST SLOPES AND CENTRAL MONTANA

CITY           SKY/WX    TMP DP  RH WIND       PRES   REMARKS
CUT BANK       CLOUDY    60  45  57 SE5       29.97F
GREAT FALLS    SUNNY     75  43  31 S12       29.99F
MALMSTROM AFB  SUNNY     74  46  35 S7        29.99F
HELENA         SUNNY     65  45  48 CALM      30.07F
CHOTEAU          N/A     72  46  40 S10       30.00F
$$

MTZ011-013-016-021-045-047-050-051-261600-
NORTH CENTRAL MONTANA

CITY           SKY/WX    TMP DP  RH WIND       PRES   REMARKS
HAVRE          MOSUNNY   66  43  43 E9        29.98F
LEWISTOWN      SUNNY     72  46  39 SE3       30.08F
N BAR RANCH      N/A     73  36  25 SW7       30.14F
CHINOOK          N/A     64  45  48 E14G21    29.99F
FORT BENTON      N/A     68  45  42 MISG      29.99F
$$

MTZ017>020-022>027-061-062-261600-
NORTHEAST MONTANA

CITY           SKY/WX    TMP DP  RH WIND       PRES   REMARKS
GLASGOW        SUNNY     65  39  38 SE16      30.10F
JORDAN           N/A     77  32  19 S18       30.09F
SIDNEY         SUNNY     70  45  40 SE14      30.18F
WOLF POINT     SUNNY     68  42  38 SE7       30.14F
MALTA          SUNNY     68  45  42 E10       30.06F
PLENTYWOOD       N/A     63  45  51 SE10G16   30.18F
POPLAR           N/A     66  45  45 SE10      30.15F
$$

MTZ028>42-056>058-261600-
SOUTHCENTRAL AND SOUTHEAST MONTANA

CITY           SKY/WX    TMP DP  RH WIND       PRES   REMARKS
BAKER          SUNNY     68  39  34 SE17      30.20F
BILLINGS       MOSUNNY   62  40  44 SW6       30.12F
LIVINGSTON     SUNNY     63  41  44 NW6       30.14F
MILES CITY     SUNNY     70  38  31 S10       30.13F
BIG TIMBER     SUNNY     63  43  48 W5        30.17S
FORSYTH          N/A     72  36  26 E9        30.11
ROUNDUP          N/A     66  35  31 SW7       30.02F
$$

REGIONAL REPORTS...DAKOTAS

CITY           SKY/WX    TMP DP  RH WIND       PRES   REMARKS
WILLISTON      SUNNY     66  47  50 SE9       30.21F
MINOT          SUNNY     65  38  36 S7        30.25S
DICKINSON      SUNNY     64  41  42 S14       30.22F
BEACH            N/A     63  41  45 S14       30.23F
CROSBY           N/A     63  50  63 S9G15     30.22S
TIOGA            N/A     61  52  72 S12       30.24S
WATFORD CITY     N/A     64  46  52 S10       30.21S
BISMARCK       SUNNY     61  47  59 CALM      30.28F
GRAND FORKS    SUNNY     67  45  45 W10       30.22S
FARGO          SUNNY     65  43  44 NW7       30.24S
BUFFALO SD       N/A     67  42  40 S17       30.17F
RAPID CITY     SUNNY     65  39  38 SE13      30.26S
$$

REGIONAL REPORTS...WYOMING/IDAHO/WASHINGTON

CITY           SKY/WX    TMP DP  RH WIND       PRES   REMARKS
GILLETTE       SUNNY     67  38  34 S18G28    30.21F
SHERIDAN       SUNNY     63  45  51 CALM      30.17F
BUFFALO WY     SUNNY     66  43  43 SE5       30.22F
CODY           SUNNY     70  37  29 S12       30.21F
YELLOWSTONE LA   N/A     52  41  66 CALM      30.40F
IDAHO FALLS    SUNNY     65  54  67 N6        30.16F
SALMON         SUNNY     63  46  55 CALM      30.10
BOISE          SUNNY     75  45  34 SE13      29.96S
SPOKANE        PTSUNNY   71  51  49 SE6       29.89F
$$

REGIONAL REPORTS...ALBERTA

CITY           SKY/WX    TMP DP  RH WIND       PRES   REMARKS
EDMONTON       PTSUNNY   64  46  52 S24       29.78F
CALGARY        PTSUNNY   59  50  72 SW6       29.87F
LETHBRIDGE     PTSUNNY   66  52  59 S8        29.89F
MEDICINE HAT   CLOUDY    73  45  35 SE8       29.91F
CARDSTON         N/A     63  52  67 SE2         N/A
ONEFOUR          N/A     66  39  37 E15         N/A
$$

REGIONAL REPORTS...SASKATCHEWAN

CITY           SKY/WX    TMP DP  RH WIND       PRES   REMARKS
SWIFT CURRENT  SUNNY     63  45  51 SE20G26   30.06F
REGINA         PTSUNNY   63  46  55 SE12      30.18F
SASKATOON      PTSUNNY   63  43  48 S10       30.12F
VAL MARIE        N/A     68  39  34 SE13        N/A
ASSINIBOIA       N/A     64  45  48 S17G25      N/A
$$



USA.gov is the U.S. government's official web portal to all federal, state and local government web resources and services.